Location: Béaulencourt
(50.0796°N, 2.8795°E)
Time: 18:04:35
(UTC+00:00)

Envisat - Pass Details

Date: 19 March 2026
Orbit: 761 x 762 km, 98.4° (Epoch: 14 April)

Event Time Altitude Azimuth Distance (km) Brightness Sun altitude
Rises 03:29:34 0° 8° (N) 3,238 6.8 -23.0°
Reaches altitude 10° 03:32:00 10° 1° (N) 2,307 5.8 -22.7°
Maximum altitude 03:36:39 38° 295° (WNW) 1,165 3.6 -22.0°
Enters shadow 03:36:42 38° 294° (WNW) 1,166 3.6 -22.0°
